Regional Weather Roundup
Issued by NWS Bismarck, ND

Home | Current Version | Previous Version | Text Only | Print | Product List | Glossary On
Versions: 1 2 3 4 5 6 7 8 9 10 11 12 13 14 15 16 17 18 19 20 21 22 23 24 25 26 27 28 29 30 31 32 33 34 35 36 37 38 39 40 41 42 43 44 45 46 47 48 49 50
000
ASUS43 KBIS 231420
RWRBIS

NWR BROADCAST TEXT
NATIONAL WEATHER SERVICE BISMARCK ND
800 AM CST SUN NOV 23 2014

NOTE: "FAIR" INDICATES FEW OR NO CLOUDS BELOW 12,000 FEET WITH NO
SIGNIFICANT WEATHER AND/OR OBSTRUCTIONS TO VISIBILITY.


CITY           SKY/WX    TMP DP  RH WIND       PRES   REMARKS
WILLISTON      LGT SNOW  20  15  81 NW22G32   29.59R WCI   3
MINOT          CLOUDY    26  16  65 W23G32    29.41R WCI  11
MINOT AFB      CLOUDY    26  18  69 W25G32    29.39R WCI  11
BISMARCK       CLOUDY    38  27  64 W25G35    29.47R
DICKINSON      CLOUDY    30  21  69 NW31G40   29.52R WCI  15
GARRISON         N/A     27  17  66 NW24G38   29.44R WCI  12
HETTINGER ARPT CLOUDY    35  28  75 W26G35    29.55R
JAMESTOWN      CLOUDY    38  32  79 W13       29.42R
BEACH          CLOUDY    28  25  86 NW32G41   29.59R WCI  12
CARRINGTON     CLOUDY    36  36 100 W8        29.41R
CROSBY         CLOUDY    19  16  86 NW30G41   29.53R WCI   0
HARVEY         CLOUDY    34  25  69 W21G31    29.40R
HAZEN          CLOUDY    30  21  69 NW14G25   29.51R WCI  20
LINTON         CLOUDY    37  32  81 W16G22    29.49R
MANDAN         CLOUDY    34  25  69 W26G37    29.49R
OAKES            N/A     36  36 100 W8        29.46R
RUGBY          CLOUDY    32  25  74 W23G29    29.36R WCI  19
STANLEY        FLURRIES  21  21 100 NW24G37   29.45R WCI   4
TIOGA          FLURRIES  19  19 100 NW29G43   29.50R WCI   1
$$

CITY           SKY/WX    TMP DP  RH WIND       PRES   REMARKS
GRAND FORKS    CLOUDY    41  33  73 W10       29.36S
GRAND FORKS AF CLOUDY    41  35  79 W14       29.37R
DEVILS LAKE    CLOUDY    37  28  70 W13       29.35R
FARGO          LGT RAIN  34  31  88 S6        29.40S
CANDO          CLOUDY    37  32  81 W13       29.35S
CAVALIER       FAIR      37  32  81 W7        29.36R
GRAFTON        PTSUNNY   36  32  87 W10       29.37R
GWINNER        CLOUDY    37  37 100 W9        29.46R
LANGDON        CLOUDY    32  28  86 SW7       29.33S
ROLLA          CLOUDY    32  32 100 W7        29.34R
WALHALLA         N/A     32  32 100 N10       29.37R
$$

CITY           SKY/WX    TMP DP  RH WIND       PRES   REMARKS
ABERDEEN       CLOUDY    39  32  76 W16       29.49R
MOBRIDGE       CLOUDY    38  31  76 NW9       29.50R
BUFFALO          N/A     35  25  66 W30G43    29.55R
RAPID CITY     CLEAR     36  18  48 NW17      29.66R
GLASGOW        FLURRIES  25  20  81 NW26G37   29.70R WCI   9
SIDNEY         MOCLDY    25  18  74 W21G31    29.65R WCI  10
WOLF POINT     LGT SNOW  26  18  71 NW22G32   29.70R WCI  12
GLENDIVE       CLOUDY    27  21  80 NW18G29   29.68R WCI  13
MILES CITY     MOCLDY    35  26  69 W25G35    29.70R
BAKER          CLOUDY    34  26  72 W29G37    29.61R
$$

CITY           SKY/WX    TMP DP  RH WIND       PRES   REMARKS
BILLINGS       MOCLDY    33  19  56 W20       29.84R
GREAT FALLS    PTCLDY    27  22  81 W8        29.87R WCI  19
REGINA         FLURRIES  12   9  85 NW22G29   29.64R WCI  -7
ESTEVAN        LGT SNOW  16  12  86 NW28G40   29.49R DRFTSNOWWCI  -4
$$




USA.gov is the U.S. government's official web portal to all federal, state and local government web resources and services.